QPF
0.15 0.11 0.10 0.08 0.06 0.06 0.06 0.06 0.06 0.09 0.08 0.06 0.04 0.03 0.03 0.02 0.03 0.03 0.04 0.06 0.04 0.03 0.04 0.05 0.04 0.05 0.05 0.05 0.08 0.08 0.07 0.10 0.09 0.09 0.10 0.09 0.09 0.11 0.09 0.09 0.10 0.11 0.09
0.10 0.08 0.06 0.07 0.06 0.06 0.08 0.09 0.10 0.13 0.12 0.08 0.04 0.03 0.03 0.03 0.03 0.03 0.04 0.06 0.06 0.06 0.06 0.06 0.05 0.04 0.04 0.05 0.07 0.09 0.10 0.11 0.11 0.09 0.10 0.10 0.09 0.11 0.13 0.12 0.14 0.13 0.08
0.08 0.06 0.06 0.05 0.05 0.06 0.09 0.10 0.10 0.07 0.06 0.06 0.05 0.04 0.04 0.04 0.04 0.04 0.05 0.07 0.06 0.06 0.07 0.07 0.04 0.04 0.04 0.05 0.06 0.09 0.11 0.10 0.11 0.11 0.10 0.11 0.10 0.09 0.11 0.14 0.15 0.13 0.11
0.05 0.05 0.04 0.04 0.04 0.06 0.07 0.08 0.07 0.08 0.09 0.06 0.04 0.05 0.04 0.04 0.05 0.04 0.04 0.06 0.06 0.06 0.07 0.07 0.06 0.06 0.06 0.05 0.06 0.07 0.09 0.07 0.09 0.10 0.10 0.11 0.10 0.10 0.10 0.11 0.11 0.12 0.12
0.05 0.06 0.03 0.03 0.04 0.06 0.06 0.06 0.09 0.15 0.14 0.08 0.05 0.04 0.03 0.03 0.04 0.06 0.07 0.07 0.07 0.08 0.12 0.13 0.11 0.11 0.09 0.07 0.08 0.08 0.10 0.08 0.08 0.10 0.11 0.12 0.12 0.10 0.11 0.13 0.10 0.09 0.11
0.07 0.07 0.04 0.04 0.05 0.06 0.06 0.06 0.11 0.14 0.14 0.12 0.08 0.03 0.02 0.03 0.04 0.05 0.07 0.08 0.08 0.11 0.14 0.14 0.12 0.11 0.10 0.08 0.08 0.09 0.09 0.10 0.13 0.13 0.14 0.14 0.13 0.09 0.09 0.13 0.12 0.09 0.10
0.08 0.07 0.06 0.06 0.07 0.06 0.06 0.06 0.07 0.12 0.16 0.12 0.06 0.03 0.03 0.03 0.03 0.04 0.06 0.07 0.07 0.08 0.10 0.09 0.09 0.08 0.07 0.06 0.08 0.08 0.09 0.11 0.14 0.17 0.16 0.13 0.10 0.08 0.07 0.12 0.11 0.08 0.07
0.04 0.04 0.05 0.05 0.06 0.06 0.05 0.05 0.05 0.05 0.05 0.05 0.04 0.03 0.03 0.03 0.03 0.03 0.05 0.08 0.10 0.09 0.08 0.07 0.08 0.09 0.07 0.06 0.06 0.07 0.09 0.10 0.11 0.11 0.13 0.11 0.06 0.04 0.07 0.11 0.09 0.08 0.09
0.04 0.04 0.04 0.04 0.03 0.03 0.03 0.04 0.04 0.04 0.04 0.03 0.03 0.03 0.03 0.03 0.02 0.03 0.05 0.10 0.17 0.14 0.09 0.09 0.09 0.09 0.07 0.07 0.05 0.06 0.08 0.10 0.11 0.11 0.10 0.09 0.05 0.04 0.06 0.09 0.09 0.10 0.11
0.05 0.06 0.05 0.04 0.04 0.05 0.03 0.04 0.05 0.04 0.04 0.04 0.04 0.04 0.04 0.03 0.03 0.02 0.03 0.10 0.20 0.16 0.11 0.10 0.10 0.07 0.06 0.06 0.06 0.05 0.07 0.11 0.12 0.11 0.10 0.07 0.04 0.05 0.07 0.10 0.12 0.12 0.13
0.05 0.05 0.06 0.05 0.06 0.07 0.03 0.02 0.03 0.04 0.04 0.06 0.07 0.06 0.06 0.07 0.05 0.05 0.03 0.08 0.13 0.13 0.10 0.10 0.10 0.07 0.06 0.06 0.05 0.06 0.10 0.10 0.10 0.13 0.11 0.07 0.05 0.07 0.09 0.13 0.15 0.13 0.09
0.04 0.05 0.06 0.05 0.06 0.07 0.03 0.03 0.05 0.05 0.05 0.09 0.12 0.10 0.09 0.08 0.08 0.07 0.06 0.06 0.07 0.07 0.07 0.08 0.08 0.06 0.07 0.10 0.07 0.08 0.11 0.10 0.11 0.07 0.06 0.04 0.05 0.08 0.11 0.11 0.11 0.09 0.07
0.03 0.04 0.05 0.05 0.05 0.06 0.05 0.03 0.04 0.05 0.07 0.12 0.13 0.10 0.09 0.07 0.07 0.07 0.06 0.07 0.07 0.08 0.09 0.09 0.08 0.08 0.08 0.09 0.10 0.10 0.11 0.10 0.10 0.10 0.09 0.06 0.08 0.10 0.10 0.09 0.09 0.09 0.11
0.03 0.02 0.04 0.05 0.05 0.06 0.04 0.03 0.04 0.05 0.07 0.09 0.09 0.07 0.06 0.07 0.07 0.07 0.07 0.09 0.11 0.13 0.13 0.11 0.08 0.08 0.09 0.08 0.07 0.08 0.08 0.07 0.08 0.08 0.10 0.10 0.12 0.10 0.10 0.11 0.10 0.11 0.11
0.04 0.03 0.06 0.07 0.06 0.07 0.07 0.06 0.04 0.05 0.05 0.05 0.06 0.05 0.05 0.05 0.06 0.06 0.09 0.11 0.12 0.11 0.09 0.06 0.05 0.06 0.07 0.07 0.08 0.07 0.07 0.06 0.05 0.04 0.07 0.10 0.09 0.08 0.10 0.12 0.13 0.15 0.11
0.04 0.05 0.05 0.05 0.06 0.08 0.07 0.06 0.05 0.05 0.06 0.06 0.05 0.04 0.04 0.04 0.05 0.08 0.10 0.12 0.11 0.08 0.05 0.04 0.03 0.05 0.05 0.07 0.09 0.07 0.07 0.08 0.08 0.07 0.07 0.08 0.08 0.07 0.08 0.10 0.13 0.18 0.11
0.05 0.06 0.05 0.05 0.07 0.08 0.07 0.06 0.05 0.04 0.04 0.04 0.04 0.04 0.03 0.03 0.04 0.07 0.10 0.11 0.10 0.08 0.05 0.04 0.04 0.06 0.08 0.09 0.11 0.09 0.07 0.08 0.07 0.08 0.08 0.07 0.05 0.03 0.04 0.05 0.07 0.09 0.07
0.05 0.05 0.05 0.05 0.05 0.06 0.07 0.06 0.04 0.04 0.04 0.04 0.05 0.05 0.03 0.03 0.04 0.06 0.07 0.07 0.07 0.06 0.05 0.05 0.08 0.08 0.14 0.14 0.13 0.10 0.06 0.06 0.07 0.07 0.06 0.05 0.04 0.03 0.03 0.03 0.03 0.04 0.05
0.04 0.03 0.04 0.06 0.04 0.02 0.03 0.04 0.05 0.05 0.06 0.06 0.06 0.06 0.04 0.03 0.03 0.04 0.06 0.06 0.05 0.04 0.05 0.04 0.08 0.07 0.10 0.14 0.12 0.09 0.05 0.05 0.08 0.07 0.05 0.04 0.05 0.06 0.03 0.02 0.01 0.03 0.05
0.03 0.03 0.04 0.06 0.05 0.03 0.03 0.06 0.06 0.06 0.07 0.07 0.07 0.05 0.03 0.03 0.03 0.04 0.06 0.07 0.06 0.05 0.05 0.05 0.06 0.08 0.08 0.09 0.07 0.07 0.06 0.05 0.07 0.08 0.06 0.05 0.05 0.04 0.03 0.03 0.03 0.03 0.05
0.04 0.03 0.04 0.05 0.04 0.03 0.04 0.07 0.07 0.06 0.06 0.06 0.05 0.03 0.03 0.03 0.03 0.05 0.06 0.07 0.07 0.06 0.07 0.06 0.05 0.07 0.09 0.09 0.08 0.09 0.08 0.07 0.08 0.08 0.07 0.05 0.05 0.05 0.05 0.06 0.05 0.06 0.07
0.04 0.04 0.04 0.04 0.03 0.04 0.06 0.09 0.08 0.06 0.05 0.04 0.04 0.04 0.02 0.03 0.02 0.03 0.05 0.06 0.06 0.07 0.08 0.07 0.05 0.05 0.06 0.08 0.09 0.09 0.09 0.08 0.08 0.07 0.06 0.06 0.05 0.06 0.06 0.07 0.10 0.11 0.12
0.03 0.03 0.04 0.04 0.05 0.06 0.07 0.06 0.07 0.05 0.05 0.05 0.05 0.06 0.04 0.04 0.03 0.03 0.04 0.06 0.07 0.06 0.07 0.08 0.06 0.05 0.06 0.08 0.08 0.08 0.08 0.08 0.08 0.07 0.07 0.06 0.05 0.05 0.06 0.10 0.13 0.14 0.13
0.03 0.03 0.05 0.05 0.05 0.07 0.06 0.05 0.05 0.06 0.06 0.07 0.09 0.09 0.08 0.06 0.05 0.05 0.05 0.07 0.08 0.06 0.06 0.06 0.06 0.06 0.07 0.07 0.07 0.07 0.07 0.06 0.06 0.07 0.06 0.05 0.06 0.05 0.07 0.12 0.14 0.14 0.13
0.02 0.02 0.04 0.03 0.04 0.06 0.06 0.05 0.04 0.04 0.04 0.05 0.06 0.07 0.07 0.06 0.06 0.05 0.06 0.06 0.07 0.06 0.06 0.06 0.08 0.07 0.06 0.06 0.07 0.06 0.05 0.06 0.06 0.06 0.05 0.06 0.06 0.04 0.04 0.07 0.13 0.13 0.12
0.01 0.02 0.03 0.03 0.04 0.04 0.05 0.04 0.03 0.05 0.06 0.07 0.06 0.06 0.07 0.06 0.06 0.05 0.07 0.07 0.06 0.05 0.05 0.05 0.06 0.07 0.08 0.08 0.08 0.07 0.06 0.06 0.06 0.07 0.05 0.05 0.05 0.04 0.03 0.04 0.07 0.11 0.11
MSLP
1007.46 1007.50 1007.62 1007.84 1008.16 1008.56 1008.98 1009.40 1009.76 1010.07 1010.34 1010.61 1010.89 1011.23 1011.62 1012.05 1012.48 1012.87 1013.19 1013.42 1013.56 1013.64 1013.69 1013.75 1013.84 1013.97 1014.12 1014.28 1014.43 1014.54 1014.63 1014.68 1014.74 1014.82 1014.95 1015.13 1015.36 1015.61 1015.86 1016.07 1016.23 1016.34 1016.40
1007.96 1008.01 1008.12 1008.34 1008.66 1009.04 1009.45 1009.83 1010.17 1010.45 1010.71 1010.98 1011.28 1011.65 1012.07 1012.51 1012.95 1013.32 1013.61 1013.79 1013.88 1013.90 1013.91 1013.94 1014.01 1014.12 1014.27 1014.42 1014.55 1014.65 1014.70 1014.73 1014.76 1014.82 1014.93 1015.11 1015.33 1015.60 1015.86 1016.10 1016.31 1016.46 1016.57
1008.46 1008.49 1008.61 1008.84 1009.17 1009.56 1009.96 1010.33 1010.65 1010.91 1011.16 1011.41 1011.71 1012.06 1012.47 1012.90 1013.31 1013.65 1013.88 1014.02 1014.06 1014.06 1014.04 1014.05 1014.11 1014.22 1014.36 1014.50 1014.62 1014.69 1014.72 1014.72 1014.73 1014.77 1014.87 1015.03 1015.25 1015.50 1015.78 1016.04 1016.28 1016.48 1016.64
1008.94 1008.98 1009.11 1009.36 1009.71 1010.13 1010.54 1010.91 1011.22 1011.47 1011.68 1011.91 1012.17 1012.49 1012.85 1013.23 1013.57 1013.85 1014.04 1014.13 1014.14 1014.12 1014.11 1014.12 1014.19 1014.30 1014.43 1014.55 1014.65 1014.69 1014.70 1014.69 1014.68 1014.70 1014.78 1014.93 1015.14 1015.38 1015.65 1015.92 1016.17 1016.41 1016.63
1009.43 1009.48 1009.64 1009.92 1010.32 1010.76 1011.19 1011.57 1011.87 1012.09 1012.28 1012.46 1012.67 1012.92 1013.21 1013.51 1013.77 1013.98 1014.11 1014.16 1014.16 1014.15 1014.14 1014.18 1014.26 1014.37 1014.49 1014.60 1014.66 1014.69 1014.67 1014.64 1014.62 1014.65 1014.72 1014.86 1015.05 1015.27 1015.52 1015.77 1016.03 1016.29 1016.55
1009.96 1010.04 1010.23 1010.56 1010.99 1011.46 1011.90 1012.27 1012.55 1012.74 1012.88 1013.01 1013.16 1013.33 1013.53 1013.74 1013.92 1014.06 1014.14 1014.16 1014.16 1014.15 1014.18 1014.24 1014.34 1014.45 1014.56 1014.65 1014.68 1014.68 1014.65 1014.61 1014.59 1014.62 1014.71 1014.84 1015.01 1015.21 1015.42 1015.64 1015.87 1016.12 1016.40
1010.57 1010.67 1010.91 1011.28 1011.74 1012.21 1012.63 1012.97 1013.21 1013.36 1013.44 1013.51 1013.59 1013.69 1013.81 1013.94 1014.04 1014.11 1014.14 1014.15 1014.15 1014.16 1014.22 1014.30 1014.42 1014.54 1014.64 1014.69 1014.70 1014.67 1014.63 1014.59 1014.59 1014.64 1014.74 1014.88 1015.04 1015.20 1015.36 1015.52 1015.70 1015.92 1016.20
1011.25 1011.41 1011.69 1012.08 1012.53 1012.97 1013.35 1013.63 1013.80 1013.87 1013.90 1013.90 1013.92 1013.96 1014.02 1014.08 1014.13 1014.15 1014.14 1014.13 1014.14 1014.17 1014.25 1014.36 1014.49 1014.61 1014.70 1014.73 1014.71 1014.67 1014.62 1014.59 1014.61 1014.69 1014.81 1014.96 1015.10 1015.22 1015.32 1015.41 1015.53 1015.69 1015.94
1012.01 1012.22 1012.53 1012.93 1013.34 1013.72 1014.01 1014.18 1014.26 1014.25 1014.21 1014.16 1014.13 1014.14 1014.16 1014.18 1014.18 1014.17 1014.14 1014.12 1014.12 1014.17 1014.26 1014.39 1014.53 1014.65 1014.72 1014.74 1014.71 1014.66 1014.61 1014.61 1014.65 1014.76 1014.90 1015.05 1015.18 1015.26 1015.29 1015.31 1015.34 1015.43 1015.63
1012.81 1013.07 1013.41 1013.78 1014.13 1014.41 1014.58 1014.62 1014.58 1014.48 1014.36 1014.27 1014.22 1014.21 1014.22 1014.23 1014.21 1014.18 1014.14 1014.10 1014.10 1014.15 1014.25 1014.38 1014.53 1014.66 1014.73 1014.75 1014.71 1014.66 1014.63 1014.64 1014.71 1014.84 1015.00 1015.15 1015.25 1015.29 1015.26 1015.19 1015.14 1015.15 1015.29
1013.61 1013.91 1014.26 1014.60 1014.87 1015.02 1015.04 1014.95 1014.78 1014.58 1014.40 1014.28 1014.22 1014.21 1014.23 1014.25 1014.24 1014.20 1014.15 1014.10 1014.08 1014.12 1014.22 1014.36 1014.51 1014.64 1014.73 1014.75 1014.74 1014.70 1014.68 1014.71 1014.79 1014.93 1015.09 1015.23 1015.31 1015.31 1015.22 1015.08 1014.95 1014.89 1014.97
1014.33 1014.68 1015.03 1015.32 1015.50 1015.53 1015.41 1015.18 1014.88 1014.59 1014.36 1014.21 1014.16 1014.18 1014.23 1014.27 1014.28 1014.25 1014.18 1014.12 1014.09 1014.11 1014.20 1014.34 1014.50 1014.64 1014.75 1014.80 1014.81 1014.80 1014.80 1014.83 1014.92 1015.05 1015.20 1015.31 1015.36 1015.31 1015.18 1014.98 1014.79 1014.68 1014.71
1014.91 1015.30 1015.65 1015.90 1016.00 1015.92 1015.68 1015.33 1014.94 1014.57 1014.29 1014.14 1014.09 1014.14 1014.23 1014.31 1014.34 1014.33 1014.27 1014.19 1014.15 1014.15 1014.23 1014.36 1014.53 1014.69 1014.83 1014.92 1014.97 1014.98 1014.99 1015.03 1015.11 1015.21 1015.33 1015.40 1015.41 1015.33 1015.16 1014.93 1014.71 1014.56 1014.55
1015.29 1015.71 1016.07 1016.29 1016.33 1016.18 1015.86 1015.43 1014.97 1014.55 1014.24 1014.08 1014.05 1014.12 1014.25 1014.36 1014.43 1014.44 1014.39 1014.32 1014.27 1014.26 1014.32 1014.45 1014.63 1014.82 1014.99 1015.12 1015.20 1015.25 1015.27 1015.30 1015.35 1015.42 1015.48 1015.52 1015.49 1015.38 1015.19 1014.95 1014.72 1014.56 1014.53
1015.43 1015.88 1016.25 1016.46 1016.48 1016.30 1015.95 1015.49 1014.99 1014.55 1014.22 1014.05 1014.03 1014.12 1014.27 1014.43 1014.54 1014.58 1014.56 1014.50 1014.45 1014.44 1014.49 1014.62 1014.81 1015.02 1015.23 1015.39 1015.51 1015.58 1015.61 1015.63 1015.64 1015.66 1015.67 1015.65 1015.58 1015.45 1015.27 1015.04 1014.83 1014.68 1014.66
1015.32 1015.79 1016.17 1016.39 1016.43 1016.27 1015.94 1015.49 1015.01 1014.57 1014.23 1014.05 1014.03 1014.12 1014.29 1014.47 1014.62 1014.70 1014.72 1014.70 1014.67 1014.67 1014.74 1014.87 1015.06 1015.28 1015.51 1015.70 1015.84 1015.93 1015.96 1015.96 1015.94 1015.90 1015.86 1015.79 1015.70 1015.57 1015.40 1015.21 1015.03 1014.92 1014.91
1015.00 1015.46 1015.85 1016.11 1016.20 1016.10 1015.83 1015.44 1015.00 1014.58 1014.25 1014.06 1014.01 1014.09 1014.26 1014.46 1014.65 1014.78 1014.86 1014.89 1014.91 1014.94 1015.01 1015.14 1015.33 1015.56 1015.79 1015.99 1016.15 1016.24 1016.27 1016.25 1016.19 1016.11 1016.03 1015.93 1015.82 1015.70 1015.56 1015.42 1015.30 1015.24 1015.25
1014.53 1014.97 1015.36 1015.66 1015.81 1015.80 1015.64 1015.34 1014.97 1014.59 1014.26 1014.05 1013.97 1014.02 1014.17 1014.37 1014.59 1014.79 1014.94 1015.04 1015.11 1015.18 1015.28 1015.41 1015.59 1015.80 1016.02 1016.22 1016.38 1016.47 1016.49 1016.46 1016.38 1016.28 1016.16 1016.04 1015.93 1015.83 1015.74 1015.66 1015.60 1015.59 1015.64
1013.97 1014.38 1014.77 1015.10 1015.33 1015.43 1015.38 1015.19 1014.90 1014.57 1014.26 1014.02 1013.89 1013.89 1014.01 1014.21 1014.46 1014.71 1014.93 1015.11 1015.25 1015.37 1015.49 1015.63 1015.79 1015.98 1016.17 1016.35 1016.50 1016.58 1016.61 1016.57 1016.49 1016.37 1016.24 1016.13 1016.03 1015.95 1015.91 1015.89 1015.90 1015.95 1016.04
1013.41 1013.77 1014.15 1014.50 1014.80 1015.00 1015.08 1015.01 1014.82 1014.54 1014.24 1013.97 1013.80 1013.74 1013.81 1013.99 1014.25 1014.54 1014.83 1015.09 1015.31 1015.48 1015.63 1015.77 1015.91 1016.07 1016.23 1016.38 1016.51 1016.59 1016.62 1016.59 1016.51 1016.41 1016.29 1016.18 1016.10 1016.06 1016.06 1016.09 1016.16 1016.27 1016.39
1012.88 1013.20 1013.55 1013.92 1014.28 1014.58 1014.76 1014.81 1014.72 1014.50 1014.22 1013.93 1013.70 1013.58 1013.59 1013.73 1013.99 1014.31 1014.65 1014.98 1015.26 1015.48 1015.66 1015.80 1015.93 1016.06 1016.18 1016.31 1016.42 1016.50 1016.54 1016.54 1016.49 1016.40 1016.31 1016.22 1016.16 1016.15 1016.17 1016.25 1016.37 1016.51 1016.68
1012.40 1012.68 1013.00 1013.38 1013.78 1014.15 1014.44 1014.60 1014.60 1014.46 1014.20 1013.90 1013.62 1013.43 1013.38 1013.47 1013.70 1014.02 1014.40 1014.77 1015.10 1015.37 1015.58 1015.73 1015.85 1015.95 1016.05 1016.16 1016.26 1016.35 1016.42 1016.44 1016.43 1016.38 1016.31 1016.25 1016.21 1016.20 1016.25 1016.34 1016.49 1016.66 1016.86
1011.93 1012.18 1012.49 1012.86 1013.29 1013.73 1014.11 1014.36 1014.46 1014.39 1014.17 1013.87 1013.56 1013.32 1013.19 1013.22 1013.40 1013.70 1014.08 1014.47 1014.84 1015.14 1015.37 1015.54 1015.66 1015.75 1015.85 1015.95 1016.06 1016.17 1016.26 1016.33 1016.35 1016.34 1016.31 1016.26 1016.22 1016.22 1016.26 1016.35 1016.50 1016.69 1016.91
1011.42 1011.67 1011.96 1012.34 1012.78 1013.27 1013.72 1014.06 1014.25 1014.26 1014.10 1013.82 1013.50 1013.21 1013.02 1012.98 1013.09 1013.35 1013.70 1014.09 1014.47 1014.80 1015.05 1015.24 1015.38 1015.48 1015.58 1015.69 1015.82 1015.95 1016.08 1016.18 1016.25 1016.28 1016.26 1016.23 1016.19 1016.17 1016.18 1016.25 1016.38 1016.56 1016.78
1010.81 1011.08 1011.38 1011.75 1012.21 1012.73 1013.23 1013.66 1013.94 1014.04 1013.95 1013.71 1013.39 1013.08 1012.84 1012.73 1012.77 1012.96 1013.27 1013.63 1014.01 1014.35 1014.63 1014.84 1015.01 1015.14 1015.26 1015.39 1015.54 1015.70 1015.85 1015.99 1016.09 1016.14 1016.15 1016.11 1016.06 1016.01 1015.99 1016.02 1016.11 1016.27 1016.48
1010.08 1010.39 1010.69 1011.07 1011.54 1012.07 1012.63 1013.12 1013.49 1013.68 1013.67 1013.49 1013.21 1012.89 1012.61 1012.44 1012.42 1012.54 1012.79 1013.12 1013.48 1013.83 1014.13 1014.37 1014.57 1014.73 1014.88 1015.04 1015.20 1015.39 1015.56 1015.72 1015.84 1015.90 1015.91 1015.87 1015.80 1015.72 1015.66 1015.64 1015.69 1015.82 1016.02
Thickness
5821 5821 5818 5816 5814 5812 5810 5809 5807 5806 5805 5803 5802 5801 5799 5798 5797 5795 5793 5792 5790 5788 5787 5785 5783 5782 5781 5779 5777 5776 5774 5773 5772 5771 5769 5768 5767 5766 5765 5764 5763 5762 5761
5825 5821 5818 5816 5814 5812 5809 5808 5807 5806 5804 5803 5802 5800 5799 5798 5796 5794 5793 5791 5789 5787 5786 5784 5783 5781 5780 5778 5777 5775 5774 5773 5771 5770 5769 5768 5767 5766 5765 5764 5763 5761 5760
5826 5822 5818 5815 5813 5811 5809 5808 5806 5805 5804 5803 5801 5800 5799 5797 5795 5794 5792 5791 5789 5787 5785 5783 5782 5781 5779 5778 5776 5775 5773 5772 5771 5770 5770 5768 5767 5765 5764 5763 5762 5760 5759
5829 5824 5819 5815 5813 5811 5809 5808 5806 5805 5804 5802 5801 5800 5798 5796 5795 5793 5792 5790 5789 5787 5785 5783 5782 5780 5779 5777 5776 5774 5773 5773 5772 5771 5771 5770 5768 5765 5764 5762 5761 5759 5758
5830 5824 5818 5815 5813 5811 5809 5808 5807 5806 5804 5802 5800 5799 5798 5796 5795 5793 5792 5790 5789 5787 5785 5783 5781 5780 5778 5777 5775 5774 5774 5773 5772 5771 5772 5771 5769 5766 5764 5762 5760 5759 5757
5829 5824 5818 5815 5812 5810 5808 5807 5806 5806 5803 5801 5799 5798 5797 5796 5794 5793 5792 5790 5788 5786 5784 5783 5781 5780 5778 5777 5775 5775 5774 5774 5773 5772 5773 5772 5769 5766 5764 5762 5760 5758 5757
5829 5824 5818 5814 5812 5809 5808 5806 5805 5804 5802 5800 5798 5797 5796 5795 5794 5793 5791 5789 5788 5786 5784 5782 5780 5779 5778 5777 5776 5775 5774 5774 5774 5774 5774 5772 5770 5767 5765 5762 5760 5758 5757
5831 5825 5818 5814 5812 5809 5807 5805 5804 5802 5801 5799 5798 5796 5795 5794 5793 5792 5790 5789 5787 5785 5783 5782 5780 5779 5778 5777 5776 5776 5775 5774 5776 5776 5775 5773 5770 5768 5765 5763 5761 5759 5757
5833 5826 5820 5815 5812 5809 5807 5805 5803 5802 5800 5798 5797 5796 5794 5793 5792 5791 5789 5788 5786 5785 5783 5782 5781 5780 5779 5778 5777 5776 5775 5775 5776 5776 5775 5772 5770 5768 5766 5764 5762 5759 5758
5832 5828 5823 5819 5815 5811 5808 5805 5803 5801 5799 5798 5797 5795 5794 5793 5792 5791 5789 5788 5786 5784 5783 5782 5781 5780 5779 5778 5777 5776 5776 5776 5776 5776 5775 5773 5771 5769 5767 5764 5762 5760 5758
5830 5829 5827 5822 5819 5815 5811 5806 5804 5801 5799 5798 5796 5795 5794 5793 5793 5791 5790 5788 5786 5784 5783 5782 5782 5781 5780 5779 5778 5777 5776 5776 5777 5776 5775 5773 5771 5769 5767 5765 5762 5760 5759
5825 5827 5826 5824 5821 5818 5814 5808 5805 5803 5800 5799 5798 5796 5795 5794 5793 5792 5789 5788 5787 5785 5784 5783 5782 5781 5780 5780 5779 5778 5777 5778 5778 5777 5774 5773 5771 5768 5766 5765 5762 5761 5759
5828 5827 5826 5824 5821 5819 5814 5810 5808 5806 5802 5800 5799 5797 5796 5794 5793 5791 5789 5787 5787 5785 5784 5783 5783 5782 5782 5782 5781 5780 5779 5780 5779 5778 5774 5772 5771 5769 5767 5765 5763 5761 5759
5828 5826 5826 5823 5819 5817 5814 5811 5809 5807 5804 5802 5799 5798 5796 5794 5792 5791 5790 5789 5788 5787 5786 5785 5785 5784 5783 5783 5782 5781 5781 5781 5779 5776 5774 5771 5769 5768 5766 5765 5763 5761 5760
5827 5825 5824 5821 5817 5814 5812 5810 5809 5806 5804 5802 5799 5797 5795 5794 5791 5790 5789 5788 5788 5787 5786 5785 5785 5784 5783 5782 5782 5782 5780 5780 5779 5776 5773 5771 5769 5768 5767 5765 5763 5761 5760
5826 5824 5823 5819 5816 5812 5809 5808 5807 5806 5804 5802 5799 5797 5795 5793 5791 5790 5788 5787 5787 5787 5786 5785 5785 5784 5783 5782 5781 5781 5780 5779 5778 5776 5773 5771 5770 5768 5766 5765 5763 5761 5760
5826 5824 5820 5818 5814 5811 5808 5807 5807 5805 5803 5801 5798 5796 5794 5793 5791 5789 5787 5786 5787 5787 5786 5785 5784 5783 5782 5782 5781 5780 5779 5777 5776 5775 5774 5772 5770 5768 5767 5765 5763 5761 5760
5828 5823 5820 5819 5814 5810 5807 5806 5805 5804 5802 5799 5798 5795 5793 5792 5791 5789 5788 5787 5787 5787 5786 5784 5782 5780 5780 5780 5779 5779 5778 5776 5775 5774 5774 5772 5770 5768 5765 5764 5762 5761 5759
5828 5823 5819 5817 5813 5809 5807 5805 5803 5801 5799 5798 5796 5794 5792 5791 5790 5789 5788 5787 5788 5786 5785 5784 5782 5780 5778 5778 5778 5778 5777 5776 5775 5775 5773 5772 5770 5768 5765 5763 5761 5760 5758
5829 5824 5819 5816 5812 5809 5806 5803 5801 5799 5798 5797 5795 5793 5792 5790 5789 5788 5788 5787 5787 5785 5784 5782 5780 5779 5778 5777 5778 5777 5776 5776 5775 5774 5772 5771 5769 5767 5765 5763 5760 5758 5756
5828 5823 5818 5814 5811 5808 5804 5800 5797 5794 5794 5794 5794 5793 5791 5790 5789 5788 5787 5786 5786 5783 5782 5781 5779 5777 5776 5776 5772 5770 5772 5775 5774 5773 5772 5770 5768 5766 5764 5762 5759 5757 5755
5827 5822 5818 5814 5812 5809 5805 5802 5799 5797 5795 5794 5793 5791 5790 5789 5788 5788 5785 5785 5784 5782 5780 5779 5777 5774 5774 5775 5768 5763 5759 5761 5767 5772 5770 5768 5766 5764 5762 5760 5758 5756 5754
5828 5824 5821 5816 5813 5810 5807 5803 5800 5796 5793 5792 5790 5789 5789 5788 5787 5786 5785 5783 5782 5781 5778 5777 5776 5773 5769 5771 5771 5764 5756 5751 5755 5762 5765 5765 5763 5761 5759 5758 5756 5754 5752
5832 5828 5823 5817 5813 5810 5807 5803 5798 5792 5788 5789 5789 5788 5788 5787 5786 5785 5784 5782 5781 5780 5778 5777 5776 5774 5770 5766 5768 5768 5765 5761 5752 5749 5755 5759 5759 5757 5756 5755 5753 5750 5748
5837 5831 5824 5818 5813 5810 5807 5803 5799 5795 5792 5791 5789 5787 5786 5786 5786 5784 5783 5781 5779 5778 5777 5775 5774 5772 5769 5766 5764 5763 5762 5762 5759 5749 5744 5748 5751 5752 5752 5750 5748 5746 5743
5838 5833 5826 5818 5812 5810 5806 5803 5799 5795 5792 5789 5787 5784 5783 5784 5784 5783 5782 5780 5779 5777 5776 5774 5772 5770 5768 5766 5764 5762 5759 5756 5754 5751 5745 5743 5742 5745 5747 5746 5744 5742 5740